Regional Weather Roundup
Issued by NWS Albany, NY

Home | Current Version | Previous Version | Text Only | Print | Product List | Glossary On
Versions: 1 2 3 4 5 6 7 8 9 10 11 12 13 14 15 16 17 18 19 20 21 22 23 24 25 26 27 28 29 30 31 32 33 34 35 36 37 38 39 40 41 42 43 44 45 46 47 48 49 50
000
ASUS41 KALY 212110
RWRALY

NEW YORK STATE HOURLY WEATHER ROUNDUP
NATIONAL WEATHER SERVICE ALBANY NY
400 PM EST FRI NOV 21 2014

NOTE: "FAIR" INDICATES FEW OR NO CLOUDS BELOW 12,000 FEET WITH NO
SIGNIFICANT WEATHER AND/OR NO OBSTRUCTIONS TO VISIBILITY.

NYZ032-033-038>043-046>054-057>066-NYZ062>081-212200-
EAST


CITY           SKY/WX    TMP DP  RH WIND       PRES   REMARKS
ALBANY         PTCLDY    29   7  39 NW17G30   30.36R WCI  17
GLENS FALLS    CLEAR     30   4  33 W9        30.31R WCI  22
POUGHKEEPSIE   CLEAR     33   8  35 NW8       30.36R WCI  26
NEWBURGH       PTCLDY    30  14  51 NW14G23   30.36R WCI  20
MONTGOMERY     CLEAR     32  12  43 NW9       30.35R WCI  24
WHITE PLAINS   PTCLDY    32  10  40 NW15G26   30.32R WCI  22
ISLIP          PTCLDY    35  10  35 NW16      30.33R WCI  25
NEW YORK CITY  PTCLDY    36  12  37 NW18G25   30.37R WCI  26
CENTRAL PARK   CLEAR     35   7  31 NW9       30.38R WCI  28
$$

NYZ005>009-017-018-044>046-055-056-212200-
CENTRAL


CITY           SKY/WX    TMP DP  RH WIND       PRES   REMARKS
FULTON         PTCLDY    26  11  52 W9        30.38R WCI  17
SYRACUSE       PTCLDY    28  11  48 W13       30.39R WCI  17
ROME           CLEAR     23  14  68 NW12      30.39R WCI  12
ELMIRA         PTCLDY    29  10  45 W13       30.38R WCI  19
BINGHAMTON     PTCLDY    24  10  55 NW7       30.32R WCI  16
MONTICELLO     CLEAR     25   7  46 NW13G22   30.32R WCI  13
$$

NYZ026>034-041>043-212200-
NORTH


CITY           SKY/WX    TMP DP  RH WIND       PRES   REMARKS
WATERTOWN      CLEAR     27   9  46 W10       30.37R WCI  17
FORT DRUM      NOT AVBL
MASSENA        CLEAR     23   6  48 SW9       30.33R WCI  13
SARANAC LAKE   CLEAR     17   4  56 SW8       30.20R WCI   7
PLATTSBURGH    CLEAR     25   2  37 W9G17     30.29R WCI  15
$$

NYZ001>004-010>016-019>021-212200-
WEST


CITY           SKY/WX    TMP DP  RH WIND       PRES   REMARKS
NIAGARA FALLS  PTCLDY    25  12  58 W12       30.41R WCI  14
BUFFALO        FLURRIES  26  11  52 SW12      30.40R WCI  16
DUNKIRK        FLURRIES  25  15  66 SW14G23   30.44R WCI  13
JAMESTOWN      MOCLDY    19  10  68 SW10      30.38R WCI   8
WELLSVILLE     MOCLDY    21  10  62 W10       30.34R WCI  10
ROCHESTER      PTCLDY    28  13  53 W12       30.40R WCI  18
PENN YAN       PTCLDY    28  11  48 NW6       30.38R WCI  22
$$

             KEY
       WCI = WIND CHILL INDEX
       VSB = VISIBILITY
       HX  = HEAT INDEX
$$


USA.gov is the U.S. government's official web portal to all federal, state and local government web resources and services.